Location: La Comballaz
(46.3780°N, 7.0817°E)
Time: 02:41:55
(UTC+00:00)

ITUPSAT 1 - Pass Details

Date: 05 December 2022
Orbit: 698 x 711 km, 98.5° (Epoch: 05 February)

Event Time Altitude Azimuth Distance (km) Brightness Sun altitude
Rises 06:09:12 0° 127° (SE) 3,099 ? -8.4°
Reaches altitude 10° 06:11:51 10° 113° (ESE) 2,186 ? -8.0°
Maximum altitude 06:15:32 23° 62° (ENE) 1,509 ? -7.4°
Drops below altitude 10° 06:19:15 10° 12° (NNE) 2,201 ? -6.8°
Sets 06:21:55 0° 358° (N) 3,126 ? -6.4°
